COSMOS 970 DEB, 64977

Orbit data source: Space-Track

COSMOS 970 DEB, 64977 is space debris in LEO originally from a launch on Wed, 21 Dec 1977 UTC launched from the Tyuratam Missile And Space Complex (TTMTR). Debris objects in space refer to the collection of defunct objects orbiting the Earth. Examples of debris include non-operational satellites, rocket bodies, and fragments generated from explosions, collisions, or faulty payload assembly.

Loading next visibility...
Identifier
64977, 1977-121CN
Orbit
LEO
Country
Flag of CISCIS
Related business
Manufacturer
Unknown
Mission
Spacecraft
Bus & Motor
Unknown
Mass
Unknown
Launch date (UTC)
1977-12-21 (48 years ago)
Launch vehicle
Unknown
Launch site
Tyuratam Missile And Space Complex (TTMTR)
Object type
Payload
Rocket body
Debris
Shape & HBR
Unknown shape, 0.1 m
Radar Cross Section
Small (<0.1 m²)

Expand to show TLE details & history
Last TLE update: 2 days ago

TLE from 2 days ago
0 COSMOS 970 DEB
1 64977U 77121CN  26169.63308319  .00000123  00000-0  21575-3 0  9997
2 64977  65.7699 306.5655 0113702  34.0610 344.3553 13.71309742628757
Epoch: 2026-06-18T15:11Z
TLE epoch observation values (Epoch: 2026-06-18T15:11:38.387Z)
Latitude
16.4219°
Longitude
179.36407°
Altitude
915.544 km
Speed
7.436 km/s
True Right ascension
20h 56m 35s
True Declination
16° 19' 51"
Sunlit
Object was in full shadow at epoch
Visualization orbit readout
Latitude
Unknown
Longitude
Unknown
Altitude
Unknown
Speed
Unknown
Apparent Right ascension
Unknown
Apparent Declination
Unknown
Sunlit
N/A
Visualization observer readout
Local Sidereal Time
07:13:49
Azimuth
Unknown
Elevation
Unknown
Doppler factor
Unknown
Orbital elements
Apogee altitude
1,077.215 km
Perigee altitude
909.584 km
Semi-major axis
7,371.537 km
Eccentricity
0.01137
Inclination
65.7699°
RAAN
306.5655°
Arg. of periapsis
34.061°
True anomaly
343.99907°
Mean anomaly
344.3553°
Eccentric anomaly
344.17767°
Mean motion
3.42931 °/min
Orbital period
104.98 mins
BSTAR
0.00021575
Loading maneuver chart data...
Computing Atmospheric mass density...
Loading historical data...
Loading historical data...
Loading historical data...
Loading historical data...
Loading historical data...
Loading historical data...
Loading historical data...

Documentation

Showing up to 5 results
|